{"data":{"norad_id":57004,"epoch":"2026-09-21T22:09:50.641920Z","epoch_age_seconds":76998,"freshness":"FRESH","line1":"1 57004U 23085A   26264.92350280  .00008896  00000+0  28528-3 0  9991","line2":"2 57004  97.5019  16.0517 0007387  55.1441 305.0494 15.32555697181377","mean_motion":15.32555697,"eccentricity":0.0007387,"inclination_deg":97.5019,"raan_deg":16.0517,"arg_perigee_deg":55.1441,"mean_anomaly_deg":305.0494,"bstar":0.00028528,"rev_number":18137,"period_min":93.960696033353,"perigee_km":463.13301187617,"apogee_km":473.24777596795,"semimajor_km":6846.3273939221,"source":"CELESTRAK","updated_at":"2026-09-22T09:00:25.997201Z"}}